C/2020 V2 ( ZTF )

Japanese version
Home page
Updated on May 4, 2021

---------------------------------------------------------------------

* Profile

Discovery Date November 2, 2020
Magnitude 19.0 mag
Discoverer Zwicky Transient Facility

* Pictures

* Orbital Elements

Epoch 2023 May 16.0 TT = JDT 2460080.5
T 2023 May 8.58943 TT                                   Rudenko
q   2.2277772            (2000.0)            P               Q
z  -0.0005063      Peri.  162.43158     +0.69787798     +0.59390537
 +/-0.0000060      Node   212.37153     +0.53387285     -0.05878850
e   1.0011280      Incl.  131.61180     +0.47743702     -0.80238415
From 546 observations 2020 Apr. 18-2021 Apr. 30, mean residual 0".4.

* Finding Charts

* Magnitudes Graph

        m1 = 4.0 + 5 log d + 10.0 log r

---------------------------------------------------------------------

The orbital elements are published on M.P.E.C. 2021-J28.
The charts are made with StellaNavigator Ver.10 (AstroArts).
The magnitudes graphs are made with Comet for Windows.

---------------------------------------------------------------------

Copyright(C) Seiichi Yoshida (comet@aerith.net). All rights reserved.